VA7WMK Weather Reports


time (UTC)temp
F
wind
direction
speed
knots
gust
knots
rain 1hr
in
rain 24hr
in
rain mn
in
humidity
%
barometer
mb
20260507025515 56 70 1.7 4.3 0.00 0.00 0.00 68 1017.8
20260507024510 56 71 1.7 4.3 0.00 0.00 0.00 68 1017.8
20260507023014 56 73 1.7 5.2 0.00 0.00 0.00 68 1017.7
20260507021013 57 74 1.7 5.2 0.00 0.00 0.00 66 1017.5
20260507020006 58 73 1.7 5.2 0.00 0.00 0.00 65 1017.7
20260507015513 58 71 1.7 2.6 0.00 0.00 0.00 65 1017.8
20260507014005 59 73 1.7 5.2 0.00 0.00 0.00 64 1017.7
20260507013513 59 74 0.9 5.2 0.00 0.00 0.00 63 1017.7
20260507013009 60 75 0.9 5.2 0.00 0.00 0.00 62 1017.6
20260507012016 61 72 0.9 2.6 0.00 0.00 0.00 62 1017.6
20260507011511 61 71 0.9 2.6 0.00 0.00 0.00 61 1017.6
20260507010506 61 70 1.7 2.6 0.00 0.00 0.00 61 1017.6
20260507010014 61 72 1.7 2.6 0.00 0.00 0.00 61 1017.6
20260507005511 62 72 1.7 5.2 0.00 0.00 0.00 60 1017.5
20260507004506 62 72 0.9 5.2 0.00 0.00 0.00 59 1017.4
20260507004015 63 72 0.9 5.2 0.00 0.00 0.00 59 1017.3
20260507003010 63 67 0.9 2.6 0.00 0.00 0.00 60 1017.4
20260507002506 63 69 0.9 2.6 0.00 0.00 0.00 60 1017.4
20260507001010 62 70 0.9 2.6 0.00 0.00 0.00 61 1017.5
20260507000507 62 71 0.9 2.6 0.00 0.00 0.00 61 1017.5
20260506235514 62 72 0.9 2.6 0.00 0.00 0.00 61 1017.5
20260506235011 62 68 0.9 2.6 0.00 0.00 0.00 61 1017.5
20260506234006 62 67 0.9 2.6 0.00 0.00 0.00 61 1017.5
20260506233514 62 71 0.9 2.6 0.00 0.00 0.00 61 1017.5
20260506233010 61 72 0.9 2.6 0.00 0.00 0.00 61 1017.5
20260506232006 61 66 0.9 2.6 0.00 0.00 0.00 62 1017.5
20260506231514 61 64 0.9 2.6 0.00 0.00 0.00 63 1017.5
20260506230509 61 71 0.9 2.6 0.00 0.00 0.00 62 1017.4
20260506230006 61 71 0.9 2.6 0.00 0.00 0.00 62 1017.3
20260506225514 61 74 0.9 2.6 0.00 0.00 0.00 62 1017.4
20260506224509 61 71 0.9 1.7 0.00 0.00 0.00 63 1017.5
20260506224004 60 71 0.9 1.7 0.00 0.00 0.00 63 1017.5
20260506222507 60 70 0.9 4.3 0.00 0.00 0.00 63 1017.6
20260506221504 60 71 0.9 4.3 0.00 0.00 0.00 62 1017.6
20260506221012 60 70 0.9 2.6 0.00 0.00 0.00 62 1017.6
20260506214007 60 69 0.9 4.3 0.00 0.00 0.00 62 1017.6
20260506213012 61 69 0.9 2.6 0.00 0.00 0.00 61 1017.6
20260506212008 62 67 0.9 4.3 0.00 0.00 0.00 61 1017.7
20260506211504 62 68 0.9 4.3 0.00 0.00 0.00 61 1017.7
20260506210511 62 69 0.9 4.3 0.00 0.00 0.00 61 1017.7
20260506210007 61 71 0.9 4.3 0.00 0.00 0.00 61 1017.7
20260506204512 61 70 0.9 2.6 0.00 0.00 0.00 62 1017.5
20260506204008 60 68 0.9 2.6 0.00 0.00 0.00 62 1017.5
20260506202512 60 73 0.9 2.6 0.00 0.00 0.00 62 1017.6
20260506201507 60 70 0.9 2.6 0.00 0.00 0.00 62 1017.5
20260506201015 60 62 0.9 1.7 0.00 0.00 0.00 62 1017.6
20260506200512 60 65 0.9 1.7 0.00 0.00 0.00 62 1017.6
20260506195506 59 73 0.9 1.7 0.00 0.00 0.00 63 1017.7
20260506195015 59 67 0.9 2.6 0.00 0.00 0.00 63 1017.8
20260506193507 58 60 0.9 2.6 0.00 0.00 0.00 63 1017.8
20260506193015 57 59 0.9 2.6 0.00 0.00 0.00 64 1017.8
20260506192010 57 57 1.7 2.6 0.00 0.00 0.00 64 1017.8
20260506191507 57 57 1.7 2.6 0.00 0.00 0.00 64 1017.7
20260506190011 56 73 1.7 5.2 0.00 0.00 0.00 64 1017.6
20260506185005 56 64 1.7 5.2 0.00 0.00 0.00 64 1017.6
20260506184010 56 60 1.7 5.2 0.00 0.00 0.00 64 1017.5
20260506183005 56 70 2.6 5.2 0.00 0.00 0.00 64 1017.5
20260506182513 56 76 2.6 5.2 0.00 0.00 0.00 64 1017.5
20260506181004 56 77 1.7 5.2 0.00 0.00 0.00 64 1017.3
20260506174010 55 71 1.7 4.3 0.00 0.00 0.00 64 1017.3
20260506173507 55 77 1.7 6.1 0.00 0.00 0.00 64 1017.3
20260506173014 54 79 1.7 6.1 0.00 0.00 0.00 64 1017.3
20260506172008 54 81 0.9 6.1 0.00 0.00 0.00 65 1017.3
20260506171516 54 81 0.9 5.2 0.00 0.00 0.00 66 1016.3
20260506170505 54 74 0.9 4.3 0.00 0.00 0.00 68 1013.6
20260506051005 56 68 1.7 2.6 0.00 0.00 0.00 67 1012.6
20260506050513 56 68 1.7 4.3 0.00 0.00 0.00 67 1012.6
20260506045004 56 70 1.7 4.3 0.00 0.00 0.00 67 1012.5
20260506043507 57 66 1.7 5.2 0.00 0.00 0.00 67 1012.4
20260506043015 57 65 1.7 5.2 0.00 0.00 0.00 67 1012.4
20260506042010 57 69 1.7 5.2 0.00 0.00 0.00 67 1012.3
20260506041015 57 70 0.9 5.2 0.00 0.00 0.00 67 1012.2
20260506035506 58 58 1.7 5.2 0.00 0.00 0.00 65 1012.0
20260506034514 59 70 1.7 5.2 0.00 0.00 0.00 65 1011.9
20260506034010 59 75 1.7 5.2 0.00 0.00 0.00 65 1011.9
20260506032014 60 63 0.9 2.6 0.00 0.00 0.00 63 1012.0
20260506031508 60 56 1.7 4.3 0.00 0.00 0.00 62 1012.0
20260506031013 60 61 1.7 5.2 0.00 0.00 0.00 62 1011.9
20260506030508 60 69 1.7 5.2 0.00 0.00 0.00 62 1011.9